Regional Weather Roundup
Issued by NWS Grand Forks, ND

Home | Current Version | Previous Version | Graphics & Text | Print | Product List | Glossary On
Versions: 1 2 3 4 5 6 7 8 9 10 11 12 13 14 15 16 17 18 19 20 21 22 23 24 25 26 27 28 29 30 31 32 33 34 35 36 37 38 39 40 41 42 43 44 45 46 47 48 49 50
000
ASUS43 KFGF 201310
RWRFGF
PRAIRIE TO PINES  WEATHER ROUNDUP
NATIONAL WEATHER SERVICE EASTERN NORTH DAKOTA/GRAND FORKS ND
800 AM CDT SUN AUG 20 2017

 **SATELLITE DATA USED TO AUGMENT SKY COVER AT AUTOMATED STATIONS**
 *****  WEATHER ACROSS EASTERN NORTH DAKOTA  *****

CITY           SKY/WX    TMP DP  RH WIND       PRES   REMARKS
GRAND FORKS    PTSUNNY   63  50  62 NW10      29.92R
GRAND FRKS AFB FAIR      61  48  62 NW10      29.93R
DEVILS LAKE    FAIR      57  51  80 W7        30.01R
FARGO          FAIR      61  52  72 NW12      29.93R
WAHPETON ARPT  FAIR      61  52  72 NW9       29.94R
$$

 ***** WEATHER ACROSS CENTRAL AND WESTERN NORTH DAKOTA  *****

CITY           SKY/WX    TMP DP  RH WIND       PRES   REMARKS
BISMARCK       FAIR      55  49  80 CALM      30.05R
MINOT          FAIR      54  42  64 SW8       30.03R
JAMESTOWN      FAIR      59  50  72 N9        29.98R
MINOT AFB      FAIR      52  42  70 W8        30.01R
GARRISON         N/A     49  45  86 NW3       30.05R
WILLISTON      FAIR      49  43  80 NW3       30.06R
DICKINSON      FAIR      54  45  71 NW5       30.06R
HETTINGER      FAIR      57  41  55 NE13      30.06R
$$

 *****  OTHER AIRPORT OBSERVATIONS IN OUR AREA  *****

CITY           SKY/WX    TMP DP  RH WIND       PRES   REMARKS
WALHALLA       FAIR      59  59 100 W9G16     29.92R
GRAFTON AIRPOR FAIR      61  50  67 W10       29.93R
VALLEY CITY AR NOT AVBL
CANDO          FAIR      50  52 100 W7        30.01R
CAVALIER APRT  FAIR      59  48  67 W10       29.91R
GWINNER        SUNNY     61  54  77 NW10      29.98R
SHEYENNE NWR     N/A     62  53  72 NW6       29.95S
ROLLA          FAIR      55  45  67 NW9       29.99R
 ***** THE ABOVE OBSERVATIONS ARE NON NWS ARE NOT QUALITY
       CONTROLLED AND MAY MIS-REPORT RAIN FOR SNOW...
$$

  *****  WEATHER ACROSS NORTHERN MINNESOTA  *****

CITY           SKY/WX    TMP DP  RH WIND       PRES   REMARKS
FLAG ISLAND    HAZE      66  54  63 NW10      29.80R VSB 3/4
WARROAD        FAIR      63  55  77 W8        29.84R
ROSEAU         FAIR      63  57  82 W10       29.85R
HALLOCK        FAIR      61  50  67 NW9       29.89R
THF RVR FALLS  FAIR      62  52  69 NW9       29.92R
BAUDETTE       FAIR      64  59  83 W8        29.82R
WASKISH        PTSUNNY   64  61  88 W14       29.85R
CROOKSTON      FAIR      61  52  72 NW10      29.92R
STEPHEN NDAWN    N/A     61  50  67 NW7         N/A
GREENBUSH NDAW   N/A     61  52  72 W8          N/A
$$
  *****  WEATHER ACROSS CENTRAL AND WEST MINNESOTA  *****

CITY           SKY/WX    TMP DP  RH WIND       PRES   REMARKS
FOSSTON        FAIR      61  54  77 NW10G20   29.91R
BEMIDJI        FAIR      63  59  88 NW14      29.87R
PARK RAPIDS    FAIR      65  61  87 NW9       29.88R
ELBOW LAKE     FAIR      61  59  91 W12       29.92R
WADENA         FAIR      64  64 100 NW6       29.89R
DETROIT LAKES  FAIR      61  55  82 NW12      29.93R
MOORHEAD       FAIR      61  54  77 NW12      29.93R
FERGUS FALLS   FAIR      61  61 100 NW8       29.93R
MORRIS MN      FAIR      64  61  88 NW15      29.90R
STAPLES        FAIR      64  64 100 W8        29.89R
$$
  *****  WEATHER ELSEWHERE ACROSS MINNESOTA  *****

CITY           SKY/WX    TMP DP  RH WIND       PRES   REMARKS
DULUTH         FAIR      64  63  96 SW15      29.87R
INTRNTL FALLS  CLOUDY    65  62  90 SW7       29.78R
ELY            FAIR      64  63  94 S3        29.83S
CLOQUET        FAIR      63  61  94 S8        29.87S
WHEATON        FAIR      63  55  77 NW9       29.94S
BRAINERD       FAIR      65  63  93 SW9       29.87R
HIBBING        CLOUDY    57  57 100 CALM      29.84S FOG
ALEXANDRIA     FAIR      66  63  90 NW12      29.92R
SAINT CLOUD    FAIR      64  64 100 S6        29.88S
MINNEAPOLIS    CLOUDY    67  62  84 SE5       29.90R
$$

  *****  WEATHER ACROSS SOUTH DAKOTA  *****

CITY           SKY/WX    TMP DP  RH WIND       PRES   REMARKS
SIOUX FALLS    FAIR      69  65  86 CALM      29.92S
BROOKINGS      FAIR      65  63  93 N8        29.92S
WATERTOWN      FAIR      65  61  87 N16       29.93R
HURON          FAIR      66  61  84 N17G23    29.91F
SISSETON         N/A     64  56  75 NW14      29.92S
ABERDEEN       FAIR      63  56  78 N8        29.99R
MITCHELL       FAIR      66  64  93 W3        29.92R FOG
PIERRE         FAIR      65  54  67 E5        29.94F
MOBRIDGE       LGT RAIN  62  51  67 MISG      29.98F
RAPID CITY     FAIR      58  48  69 NW10      30.07R
$$

  *****  SOME WEATHER IN NEARBY STATES *****

CITY           SKY/WX    TMP DP  RH WIND       PRES   REMARKS
GLASGOW MT     FAIR      48  31  51 NE5       30.06R
GREAT FALLS MT FAIR      49  37  63 SW12      30.05S
CHEYENNE WY    FAIR      61  30  31 W9        30.14R
SCOTTSBLUFF NE FAIR      61  45  55 VRB5      30.05R
OMAHA NE       PTSUNNY   70  64  81 E10       29.87F THUNDER
DES MOINES IA  CLOUDY    69  67  93 E6        29.95R
DAVENPORT IA   FAIR      67  63  87 SE6       30.00S
CHICAGO IL     PTSUNNY   71  61  70 S3        30.03S
EAU CLAIRE WI  FAIR      65  61  87 S6        29.92F
LA CROSSE WI   PTSUNNY   68  62  81 SE5       29.94F
$$

  *****  SOME NATIONAL WEATHER *****

CITY           SKY/WX    TMP DP  RH WIND       PRES   REMARKS
LA GUARDIA NY  FAIR      73  62  68 NW15      30.02R
RALEIGH NC     FAIR      82  71  69 N3        30.10R
ATLANTA GA     FAIR      81  69  67 CALM      30.10R
NEW ORLEANS LA FAIR      81  78  91 E6        30.03R
OKLAHOMA CITY  PTSUNNY   74  71  91 S6        29.98S
ALBUQUERQUE NM MOCLDY    70  49  47 SE3       30.15R
SALT LAKE CITY FAIR      70  42  36 S7        30.01R
LOS ANGELES CA MOCLDY    67  61  81 SW3       29.93R
BOISE ID       FAIR      55  39  54 S3        30.05R
SEATTLE WA     FAIR      57  49  74 N6        30.16S
$$

*** WEATHER ACROSS MANITOBA...SASKATCHEWAN AND ONTARIO ***
                ***ONTARIO***

CITY           SKY/WX    TMP DP  RH WIND       PRES   REMARKS
GERALDTON      MOSUNNY   66  59  77 S6        29.82S
THUNDER BAY    MOSUNNY   63  59  88 VRB2      29.84S
SIOUX LOOKOUT  CLOUDY    66  61  82 SW6       29.71S
TORONTO        SUNNY     70  61  73 W3        30.04R
BIG TROUT LK   CLOUDY    63  59  88 W12       29.54F
PICKLE LAKE    PTSUNNY   68  59  73 S13G21    29.64F
DRYDEN         NOT AVBL
KENORA         PTSUNNY   66  57  72 NW13G21   29.78R
$$
                *** MANITOBA***

CITY           SKY/WX    TMP DP  RH WIND       PRES   REMARKS
BRANDON        MOSUNNY   50  45  81 SW8       29.95R
DAUPHIN        SUNNY     55  46  71 W15       29.90R
ISLAND LAKE    MOSUNNY   63  55  77 W14       29.60R
PILOT MOUND      N/A     54  45  71 W6          N/A
THE PAS        MOSUNNY   55  48  76 W15G22    29.75S
THOMPSON       MOSUNNY   54  52  94 W10       29.58R
WINNIPEG       MOSUNNY   59  50  72 W10       29.87R
LYNN LAKE      PTSUNNY   52  50  93 MISG      29.58S
CHURCHILL      LGT RAIN  52  52 100 E15       29.50F FOG
GILLAM         FOG       55  55 100 CALM      29.48R VSB 3/8
$$
                ***SASKATCHEWAN***

CITY           SKY/WX    TMP DP  RH WIND       PRES   REMARKS
ESTEVAN        MOCLDY    46  39  76 W7        30.05R
KINDERSLEY     MOCLDY    48  39  71 S3        29.99S
LLOYDMINSTER   CLOUDY    50  43  76 W10       29.92F
PRINCE ALBERT  PTCLDY    52  45  76 W9        29.90S
REGINA         PTCLDY    41  37  87 S3        30.03R
YORKTON        SUNNY     50  45  81 W12       29.96R
N. BATTLEFORD  PTCLDY    52  45  76 W8        29.95S
LA RONGE       PTCLDY    54  48  82 W10       29.77R
SASKATOON      MOCLDY    48  43  81 SW9       29.96S
SWIFT CURRENT  CLOUDY    52  37  58 SW9       30.02F
$$
NOTE: THESE ARE AUTOMATED STATIONS WITH LIMITED QUALITY CONTROL
      "FAIR" INDICATES FEW OR NO CLOUDS BELOW 12,000 FEET WITH NO
      SIGNIFICANT WEATHER AND/OR OBSTRUCTIONS TO VISIBILITY.
      SKY/WX - SKY CONDITION AND SIGNIFICANT WEATHER.
      TMP - AIR TEMPERATURE.    DP   - DEWPOINT TEMPERATURE.
      RH  - RELATIVE HUMIDITY.  PRES - PRESSURE.
      HX  - HEAT INDEX.         WCI  - WIND CHILL INDEX.
$




USA.gov is the U.S. government's official web portal to all federal, state and local government web resources and services.